Location: Caicarita
(10.0502°N, 67.6875°W)
Time: 01:04:08
(UTC+00:00)

Cosmos 1869 - Pass Details

Date: 05 August 2024
Orbit: 487 x 521 km, 82.5° (Epoch: 09 September)

Event Time Altitude Azimuth Distance (km) Brightness Sun altitude
Rises 23:34:28 0° 358° (N) 2,659 7.1 -10.7°
Reaches altitude 10° 23:36:37 10° 0° (N) 1,767 6.2 -11.2°
Maximum altitude 23:40:30 74° 86° (E) 547 3.1 -12.1°
Drops below altitude 10° 23:44:20 10° 171° (S) 1,750 5.6 -13.0°
Enters shadow 23:46:24 - 173° (S) 2,607 6.5 -13.5°
